| time (UTC) | temp F | wind direction | speed MPH | gust MPH | rain 1hr in | rain 24hr in | rain mn in | humidity % | barometer mb |
| 20260502130722 | 80 | 308 | 5.0 | 9.0 | 0.00 | 0.00 | 0.00 | 83 | 1012.0 |
| 20260502130222 | 80 | 290 | 5.0 | 8.0 | 0.00 | 0.00 | 0.00 | 83 | 1012.0 |
| 20260502123722 | 79 | 336 | 3.0 | 5.0 | 0.00 | 0.00 | 0.00 | 85 | 1012.0 |
| 20260502123223 | 79 | 331 | 3.0 | 6.0 | 0.00 | 0.00 | 0.00 | 85 | 1011.0 |
| 20260502122723 | 79 | 9 | 3.0 | 4.0 | 0.00 | 0.00 | 0.00 | 85 | 1011.0 |
| 20260502122222 | 79 | 354 | 2.0 | 3.0 | 0.00 | 0.00 | 0.00 | 85 | 1011.0 |
| 20260502121722 | 79 | 359 | 1.0 | 3.0 | 0.00 | 0.00 | 0.00 | 85 | 1011.0 |
| 20260502121222 | 79 | 309 | 2.0 | 4.0 | 0.00 | 0.00 | 0.00 | 85 | 1011.0 |
| 20260502120722 | 79 | 266 | 2.0 | 5.0 | 0.00 | 0.00 | 0.00 | 85 | 1011.0 |
| 20260502120222 | 79 | 313 | 3.0 | 5.0 | 0.00 | 0.00 | 0.00 | 85 | 1011.0 |
| 20260502115722 | 79 | 315 | 3.0 | 5.0 | 0.00 | 0.00 | 0.00 | 85 | 1011.0 |
| 20260502115222 | 79 | 313 | 2.0 | 4.0 | 0.00 | 0.00 | 0.00 | 85 | 1010.0 |
| 20260502114722 | 79 | 312 | 2.0 | 4.0 | 0.00 | 0.00 | 0.00 | 85 | 1010.0 |
| 20260502114222 | 79 | 277 | 3.0 | 6.0 | 0.00 | 0.00 | 0.00 | 85 | 1010.0 |
| 20260502113723 | 79 | 291 | 3.0 | 6.0 | 0.00 | 0.00 | 0.00 | 85 | 1010.0 |
| 20260502113222 | 79 | 310 | 3.0 | 7.0 | 0.00 | 0.00 | 0.00 | 86 | 1010.0 |
| 20260502112723 | 79 | 255 | 3.0 | 7.0 | 0.00 | 0.00 | 0.00 | 86 | 1010.0 |
| 20260502112222 | 79 | 272 | 2.0 | 6.0 | 0.00 | 0.00 | 0.00 | 86 | 1010.0 |
| 20260502111723 | 79 | 267 | 3.0 | 7.0 | 0.00 | 0.00 | 0.00 | 86 | 1010.0 |
| 20260502111222 | 79 | 297 | 3.0 | 7.0 | 0.00 | 0.00 | 0.00 | 86 | 1010.0 |
| 20260502110723 | 79 | 353 | 2.0 | 5.0 | 0.00 | 0.00 | 0.00 | 86 | 1010.0 |
| 20260502110223 | 79 | 302 | 3.0 | 6.0 | 0.00 | 0.00 | 0.00 | 86 | 1010.0 |
| 20260502105722 | 78 | 271 | 3.0 | 7.0 | 0.00 | 0.00 | 0.00 | 86 | 1010.0 |
| 20260502105222 | 78 | 298 | 3.0 | 5.0 | 0.00 | 0.00 | 0.00 | 86 | 1010.0 |
| 20260502104722 | 78 | 271 | 3.0 | 7.0 | 0.00 | 0.00 | 0.00 | 86 | 1009.0 |
| 20260502104222 | 78 | 295 | 4.0 | 6.0 | 0.00 | 0.00 | 0.00 | 86 | 1009.0 |
| 20260502103722 | 78 | 268 | 3.0 | 6.0 | 0.00 | 0.00 | 0.00 | 86 | 1009.0 |
| 20260502103222 | 78 | 284 | 3.0 | 5.0 | 0.00 | 0.00 | 0.00 | 86 | 1009.0 |
| 20260502102722 | 78 | 288 | 2.0 | 6.0 | 0.00 | 0.00 | 0.00 | 85 | 1009.0 |
| 20260502102222 | 78 | 308 | 2.0 | 5.0 | 0.00 | 0.00 | 0.00 | 85 | 1009.0 |
| 20260502101722 | 78 | 311 | 2.0 | 6.0 | 0.00 | 0.00 | 0.00 | 85 | 1009.0 |
| 20260502101224 | 78 | 256 | 2.0 | 4.0 | 0.00 | 0.00 | 0.00 | 85 | 1009.0 |
| 20260502100722 | 78 | 313 | 3.0 | 6.0 | 0.00 | 0.00 | 0.00 | 86 | 1008.0 |
| 20260502100222 | 78 | 258 | 2.0 | 5.0 | 0.00 | 0.00 | 0.00 | 86 | 1008.0 |
| 20260502091222 | 79 | 290 | 3.0 | 5.0 | 0.00 | 0.00 | 0.00 | 84 | 1007.0 |
| 20260502090722 | 79 | 284 | 3.0 | 6.0 | 0.00 | 0.00 | 0.00 | 84 | 1007.0 |
| 20260502090222 | 79 | 331 | 2.0 | 5.0 | 0.00 | 0.00 | 0.00 | 84 | 1007.0 |
| 20260502071222 | 81 | 345 | 1.0 | 3.0 | 0.00 | 0.00 | 0.00 | 80 | 1007.0 |
| 20260502070722 | 81 | 299 | 1.0 | 2.0 | 0.00 | 0.00 | 0.00 | 80 | 1007.0 |
| 20260502070222 | 82 | 317 | 1.0 | 3.0 | 0.00 | 0.00 | 0.00 | 79 | 1007.0 |
| 20260502065722 | 82 | 320 | 1.0 | 3.0 | 0.00 | 0.00 | 0.00 | 79 | 1007.0 |
| 20260502065222 | 82 | 338 | 1.0 | 2.0 | 0.00 | 0.00 | 0.00 | 79 | 1007.0 |
| 20260502064723 | 82 | 290 | 1.0 | 3.0 | 0.00 | 0.00 | 0.00 | 79 | 1007.0 |
| 20260502064222 | 82 | 339 | 2.0 | 5.0 | 0.00 | 0.00 | 0.00 | 78 | 1007.0 |
| 20260502063722 | 82 | 281 | 3.0 | 6.0 | 0.00 | 0.00 | 0.00 | 78 | 1007.0 |
| 20260502063222 | 82 | 327 | 1.0 | 4.0 | 0.00 | 0.00 | 0.00 | 78 | 1007.0 |
| 20260502062722 | 82 | 318 | 2.0 | 5.0 | 0.00 | 0.00 | 0.00 | 77 | 1007.0 |
| 20260502062222 | 82 | 346 | 2.0 | 3.0 | 0.00 | 0.00 | 0.00 | 77 | 1007.0 |
| 20260502061722 | 83 | 331 | 1.0 | 3.0 | 0.00 | 0.00 | 0.00 | 77 | 1007.0 |
| 20260502061222 | 83 | 273 | 1.0 | 3.0 | 0.00 | 0.00 | 0.00 | 77 | 1007.0 |
| 20260502060722 | 83 | 1 | 1.0 | 3.0 | 0.00 | 0.00 | 0.00 | 76 | 1007.0 |
| 20260502060222 | 83 | 332 | 1.0 | 4.0 | 0.00 | 0.00 | 0.00 | 76 | 1007.0 |
| 20260502055722 | 83 | 307 | 2.0 | 4.0 | 0.00 | 0.00 | 0.00 | 76 | 1007.0 |
| 20260502055222 | 83 | 291 | 2.0 | 4.0 | 0.00 | 0.00 | 0.00 | 76 | 1007.0 |
| 20260502054722 | 83 | 294 | 2.0 | 4.0 | 0.00 | 0.00 | 0.00 | 76 | 1008.0 |
| 20260502054222 | 83 | 268 | 2.0 | 3.0 | 0.00 | 0.00 | 0.00 | 76 | 1007.0 |
| 20260502053722 | 83 | 285 | 2.0 | 4.0 | 0.00 | 0.00 | 0.00 | 75 | 1008.0 |
| 20260502053223 | 83 | 295 | 2.0 | 4.0 | 0.00 | 0.00 | 0.00 | 75 | 1008.0 |
| 20260502052722 | 83 | 300 | 2.0 | 4.0 | 0.00 | 0.00 | 0.00 | 75 | 1008.0 |
| 20260502052222 | 83 | 292 | 1.0 | 3.0 | 0.00 | 0.00 | 0.00 | 75 | 1007.0 |
| 20260502051723 | 83 | 354 | 2.0 | 3.0 | 0.00 | 0.00 | 0.00 | 75 | 1008.0 |
| 20260502051222 | 83 | 321 | 1.0 | 3.0 | 0.00 | 0.00 | 0.00 | 74 | 1008.0 |
| 20260502050722 | 83 | 332 | 2.0 | 3.0 | 0.00 | 0.00 | 0.00 | 74 | 1008.0 |
| 20260502050222 | 83 | 304 | 2.0 | 4.0 | 0.00 | 0.00 | 0.00 | 74 | 1008.0 |
| 20260502045723 | 83 | 286 | 2.0 | 4.0 | 0.00 | 0.00 | 0.00 | 74 | 1008.0 |
| 20260502045222 | 83 | 316 | 4.0 | 7.0 | 0.00 | 0.00 | 0.00 | 74 | 1008.0 |
| 20260502044722 | 84 | 316 | 3.0 | 5.0 | 0.00 | 0.00 | 0.00 | 74 | 1008.0 |
| 20260502044222 | 84 | 3 | 3.0 | 5.0 | 0.00 | 0.00 | 0.00 | 74 | 1008.0 |
| 20260502043722 | 84 | 273 | 3.0 | 6.0 | 0.00 | 0.00 | 0.00 | 74 | 1008.0 |
| 20260502043222 | 84 | 275 | 3.0 | 6.0 | 0.00 | 0.00 | 0.00 | 73 | 1008.0 |
| 20260502042722 | 84 | 334 | 4.0 | 6.0 | 0.00 | 0.00 | 0.00 | 74 | 1008.0 |
| 20260502042222 | 84 | 277 | 4.0 | 8.0 | 0.00 | 0.00 | 0.00 | 73 | 1008.0 |
| 20260502041722 | 84 | 294 | 4.0 | 7.0 | 0.00 | 0.00 | 0.00 | 73 | 1008.0 |
| 20260502041222 | 84 | 288 | 4.0 | 8.0 | 0.00 | 0.00 | 0.00 | 73 | 1008.0 |
| 20260502040723 | 84 | 274 | 3.0 | 5.0 | 0.00 | 0.00 | 0.00 | 73 | 1007.0 |
| 20260502040222 | 84 | 306 | 3.0 | 7.0 | 0.00 | 0.00 | 0.00 | 72 | 1007.0 |
| 20260502035722 | 84 | 286 | 4.0 | 7.0 | 0.00 | 0.00 | 0.00 | 72 | 1007.0 |
| 20260502035222 | 84 | 278 | 4.0 | 7.0 | 0.00 | 0.00 | 0.00 | 72 | 1007.0 |
| 20260502034722 | 84 | 289 | 3.0 | 6.0 | 0.00 | 0.00 | 0.00 | 71 | 1007.0 |
| 20260502034222 | 84 | 321 | 5.0 | 8.0 | 0.00 | 0.00 | 0.00 | 71 | 1007.0 |
| 20260502033723 | 84 | 251 | 5.0 | 7.0 | 0.00 | 0.00 | 0.00 | 72 | 1007.0 |
| 20260502033222 | 85 | 298 | 4.0 | 6.0 | 0.00 | 0.00 | 0.00 | 72 | 1007.0 |
| 20260502032722 | 85 | 291 | 4.0 | 8.0 | 0.00 | 0.00 | 0.00 | 71 | 1007.0 |
| 20260502032222 | 85 | 296 | 4.0 | 7.0 | 0.00 | 0.00 | 0.00 | 72 | 1007.0 |
| 20260502031722 | 85 | 285 | 4.0 | 8.0 | 0.00 | 0.00 | 0.00 | 72 | 1007.0 |
| 20260502031222 | 85 | 309 | 4.0 | 7.0 | 0.00 | 0.00 | 0.00 | 71 | 1007.0 |
| 20260502030722 | 85 | 312 | 5.0 | 7.0 | 0.00 | 0.00 | 0.00 | 71 | 1007.0 |
| 20260502030223 | 85 | 283 | 4.0 | 7.0 | 0.00 | 0.00 | 0.00 | 71 | 1006.0 |
| 20260502025722 | 85 | 304 | 3.0 | 7.0 | 0.00 | 0.00 | 0.00 | 71 | 1006.0 |
| 20260502025222 | 86 | 323 | 3.0 | 6.0 | 0.00 | 0.00 | 0.00 | 71 | 1006.0 |
| 20260502024722 | 86 | 262 | 3.0 | 5.0 | 0.00 | 0.00 | 0.00 | 71 | 1006.0 |
| 20260502024222 | 86 | 275 | 3.0 | 7.0 | 0.00 | 0.00 | 0.00 | 70 | 1006.0 |
| 20260502023722 | 86 | 287 | 4.0 | 6.0 | 0.00 | 0.00 | 0.00 | 70 | 1006.0 |
| 20260502023222 | 86 | 290 | 4.0 | 7.0 | 0.00 | 0.00 | 0.00 | 70 | 1006.0 |
| 20260502022722 | 87 | 311 | 3.0 | 5.0 | 0.00 | 0.00 | 0.00 | 69 | 1006.0 |
| 20260502022224 | 87 | 19 | 3.0 | 6.0 | 0.00 | 0.00 | 0.00 | 69 | 1006.0 |
| 20260502021722 | 87 | 16 | 3.0 | 5.0 | 0.00 | 0.00 | 0.00 | 68 | 1006.0 |
| 20260502021222 | 87 | 329 | 3.0 | 7.0 | 0.00 | 0.00 | 0.00 | 68 | 1005.0 |
| 20260502020722 | 87 | 341 | 4.0 | 8.0 | 0.00 | 0.00 | 0.00 | 67 | 1005.0 |
| 20260502020222 | 87 | 354 | 4.0 | 6.0 | 0.00 | 0.00 | 0.00 | 67 | 1005.0 |
| 20260502015722 | 87 | 16 | 4.0 | 8.0 | 0.00 | 0.00 | 0.00 | 66 | 1005.0 |
| 20260502015223 | 88 | 315 | 4.0 | 8.0 | 0.00 | 0.00 | 0.00 | 66 | 1005.0 |
| 20260502014722 | 88 | 342 | 5.0 | 9.0 | 0.00 | 0.00 | 0.00 | 66 | 1005.0 |
| 20260502014222 | 88 | 308 | 5.0 | 7.0 | 0.00 | 0.00 | 0.00 | 65 | 1005.0 |
| 20260502013722 | 88 | 346 | 5.0 | 9.0 | 0.00 | 0.00 | 0.00 | 65 | 1005.0 |
| 20260502013222 | 89 | 13 | 6.0 | 9.0 | 0.00 | 0.00 | 0.00 | 65 | 1005.0 |
| 20260502012723 | 89 | 9 | 5.0 | 7.0 | 0.00 | 0.00 | 0.00 | 64 | 1005.0 |
| 20260502012222 | 90 | 0 | 6.0 | 11.0 | 0.00 | 0.00 | 0.00 | 64 | 1005.0 |
| 20260502011723 | 90 | 48 | 6.0 | 9.0 | 0.00 | 0.00 | 0.00 | 63 | 1005.0 |
| 20260502011222 | 91 | 5 | 6.0 | 8.0 | 0.00 | 0.00 | 0.00 | 62 | 1004.0 |
| 20260502010722 | 91 | 353 | 5.0 | 8.0 | 0.00 | 0.00 | 0.00 | 62 | 1004.0 |
| 20260502010222 | 92 | 334 | 5.0 | 8.0 | 0.00 | 0.00 | 0.00 | 60 | 1004.0 |
| 20260502005723 | 93 | 19 | 5.0 | 8.0 | 0.00 | 0.00 | 0.00 | 59 | 1004.0 |
| 20260502005222 | 94 | 2 | 5.0 | 7.0 | 0.00 | 0.00 | 0.00 | 57 | 1004.0 |
| 20260502004722 | 94 | 344 | 5.0 | 9.0 | 0.00 | 0.00 | 0.00 | 54 | 1004.0 |
| 20260502004222 | 95 | 39 | 7.0 | 9.0 | 0.00 | 0.00 | 0.00 | 53 | 1003.0 |
| 20260502003723 | 95 | 64 | 8.0 | 13.0 | 0.00 | 0.00 | 0.00 | 52 | 1003.0 |
| 20260502003222 | 97 | 11 | 6.0 | 11.0 | 0.00 | 0.00 | 0.00 | 49 | 1003.0 |
| 20260502002723 | 99 | 13 | 2.0 | 6.0 | 0.00 | 0.00 | 0.00 | 44 | 1003.0 |
| 20260502002222 | 100 | 296 | 1.0 | 3.0 | 0.00 | 0.00 | 0.00 | 43 | 1003.0 |
| 20260502001722 | 101 | 314 | 1.0 | 3.0 | 0.00 | 0.00 | 0.00 | 40 | 1003.0 |
| 20260502001222 | 101 | 271 | 1.0 | 3.0 | 0.00 | 0.00 | 0.00 | 40 | 1003.0 |
| 20260502000722 | 101 | 316 | 1.0 | 2.0 | 0.00 | 0.00 | 0.00 | 40 | 1003.0 |
| 20260502000226 | 102 | 273 | 1.0 | 2.0 | 0.00 | 0.00 | 0.00 | 39 | 1002.0 |
| 20260501235722 | 102 | 260 | 1.0 | 2.0 | 0.00 | 0.00 | 0.00 | 40 | 1002.0 |
| 20260501235224 | 102 | 305 | 1.0 | 2.0 | 0.00 | 0.00 | 0.00 | 39 | 1002.0 |
| 20260501234722 | 102 | 286 | 1.0 | 3.0 | 0.00 | 0.00 | 0.00 | 38 | 1002.0 |
| 20260501234223 | 102 | 289 | 2.0 | 4.0 | 0.00 | 0.00 | 0.00 | 37 | 1002.0 |
| 20260501233723 | 103 | 358 | 1.0 | 4.0 | 0.00 | 0.00 | 0.00 | 36 | 1002.0 |
| 20260501233222 | 104 | 297 | 1.0 | 3.0 | 0.00 | 0.00 | 0.00 | 36 | 1002.0 |
| 20260501232722 | 104 | 25 | 2.0 | 4.0 | 0.00 | 0.00 | 0.00 | 34 | 1002.0 |
| 20260501232222 | 104 | 8 | 2.0 | 3.0 | 0.00 | 0.00 | 0.00 | 33 | 1002.0 |
| 20260501231722 | 105 | 28 | 1.0 | 3.0 | 0.00 | 0.00 | 0.00 | 33 | 1002.0 |
| 20260501231223 | 105 | 136 | 2.0 | 4.0 | 0.00 | 0.00 | 0.00 | 33 | 1002.0 |
| 20260501230722 | 104 | 345 | 1.0 | 2.0 | 0.00 | 0.00 | 0.00 | 33 | 1002.0 |
| 20260501230222 | 103 | 294 | 3.0 | 5.0 | 0.00 | 0.00 | 0.00 | 34 | 1002.0 |
| 20260501225722 | 104 | 25 | 2.0 | 5.0 | 0.00 | 0.00 | 0.00 | 33 | 1002.0 |
| 20260501225222 | 104 | 15 | 4.0 | 6.0 | 0.00 | 0.00 | 0.00 | 33 | 1002.0 |
| 20260501224722 | 105 | 58 | 3.0 | 6.0 | 0.00 | 0.00 | 0.00 | 34 | 1002.0 |
| 20260501224222 | 105 | 6 | 2.0 | 5.0 | 0.00 | 0.00 | 0.00 | 32 | 1002.0 |
| 20260501223722 | 105 | 67 | 1.0 | 4.0 | 0.00 | 0.00 | 0.00 | 32 | 1002.0 |
| 20260501223222 | 105 | 48 | 2.0 | 3.0 | 0.00 | 0.00 | 0.00 | 32 | 1002.0 |
| 20260501222722 | 104 | 44 | 3.0 | 6.0 | 0.00 | 0.00 | 0.00 | 33 | 1002.0 |
| 20260501222222 | 104 | 76 | 4.0 | 6.0 | 0.00 | 0.00 | 0.00 | 34 | 1002.0 |
| 20260501221722 | 105 | 71 | 4.0 | 6.0 | 0.00 | 0.00 | 0.00 | 32 | 1002.0 |
| 20260501221222 | 106 | 57 | 2.0 | 7.0 | 0.00 | 0.00 | 0.00 | 30 | 1002.0 |
| 20260501220722 | 105 | 102 | 2.0 | 4.0 | 0.00 | 0.00 | 0.00 | 31 | 1002.0 |
| 20260501220222 | 105 | 105 | 2.0 | 5.0 | 0.00 | 0.00 | 0.00 | 31 | 1002.0 |
| 20260501215722 | 105 | 46 | 2.0 | 4.0 | 0.00 | 0.00 | 0.00 | 32 | 1002.0 |
| 20260501215223 | 105 | 30 | 3.0 | 7.0 | 0.00 | 0.00 | 0.00 | 31 | 1002.0 |
| 20260501214725 | 105 | 53 | 4.0 | 7.0 | 0.00 | 0.00 | 0.00 | 30 | 1002.0 |
| 20260501214223 | 106 | 215 | 2.0 | 3.0 | 0.00 | 0.00 | 0.00 | 32 | 1002.0 |
| 20260501213722 | 105 | 200 | 2.0 | 5.0 | 0.00 | 0.00 | 0.00 | 32 | 1002.0 |
| 20260501213222 | 104 | 120 | 4.0 | 7.0 | 0.00 | 0.00 | 0.00 | 34 | 1002.0 |
| 20260501212725 | 105 | 50 | 4.0 | 7.0 | 0.00 | 0.00 | 0.00 | 33 | 1002.0 |
| 20260501212222 | 105 | 87 | 2.0 | 7.0 | 0.00 | 0.00 | 0.00 | 31 | 1002.0 |
| 20260501211723 | 104 | 103 | 4.0 | 7.0 | 0.00 | 0.00 | 0.00 | 32 | 1002.0 |
| 20260501211222 | 105 | 127 | 4.0 | 7.0 | 0.00 | 0.00 | 0.00 | 32 | 1003.0 |
| 20260501210722 | 105 | 127 | 3.0 | 7.0 | 0.00 | 0.00 | 0.00 | 32 | 1003.0 |
| 20260501210222 | 105 | 303 | 2.0 | 5.0 | 0.00 | 0.00 | 0.00 | 33 | 1003.0 |
| 20260501205722 | 105 | 215 | 3.0 | 6.0 | 0.00 | 0.00 | 0.00 | 34 | 1003.0 |
| 20260501205222 | 104 | 127 | 4.0 | 7.0 | 0.00 | 0.00 | 0.00 | 33 | 1003.0 |
| 20260501204722 | 104 | 227 | 4.0 | 7.0 | 0.00 | 0.00 | 0.00 | 34 | 1003.0 |
| 20260501204222 | 103 | 146 | 5.0 | 8.0 | 0.00 | 0.00 | 0.00 | 36 | 1003.0 |
| 20260501203722 | 103 | 40 | 4.0 | 7.0 | 0.00 | 0.00 | 0.00 | 34 | 1003.0 |
| 20260501203222 | 103 | 247 | 5.0 | 9.0 | 0.00 | 0.00 | 0.00 | 36 | 1003.0 |
| 20260501202722 | 103 | 94 | 3.0 | 7.0 | 0.00 | 0.00 | 0.00 | 37 | 1003.0 |
| 20260501202222 | 102 | 87 | 6.0 | 10.0 | 0.00 | 0.00 | 0.00 | 38 | 1003.0 |
| 20260501201722 | 104 | 59 | 3.0 | 6.0 | 0.00 | 0.00 | 0.00 | 37 | 1003.0 |
| 20260501201222 | 103 | 161 | 4.0 | 6.0 | 0.00 | 0.00 | 0.00 | 38 | 1003.0 |
| 20260501200722 | 102 | 158 | 5.0 | 8.0 | 0.00 | 0.00 | 0.00 | 37 | 1003.0 |
| 20260501200222 | 102 | 115 | 6.0 | 9.0 | 0.00 | 0.00 | 0.00 | 37 | 1003.0 |
| 20260501195722 | 103 | 82 | 3.0 | 6.0 | 0.00 | 0.00 | 0.00 | 37 | 1004.0 |
| 20260501195222 | 102 | 98 | 5.0 | 8.0 | 0.00 | 0.00 | 0.00 | 38 | 1004.0 |
| 20260501194722 | 102 | 69 | 5.0 | 8.0 | 0.00 | 0.00 | 0.00 | 37 | 1004.0 |
| 20260501194222 | 103 | 138 | 3.0 | 9.0 | 0.00 | 0.00 | 0.00 | 37 | 1004.0 |
| 20260501193722 | 103 | 199 | 4.0 | 8.0 | 0.00 | 0.00 | 0.00 | 38 | 1004.0 |
| 20260501193222 | 102 | 195 | 5.0 | 8.0 | 0.00 | 0.00 | 0.00 | 40 | 1004.0 |
| 20260501192722 | 101 | 56 | 4.0 | 8.0 | 0.00 | 0.00 | 0.00 | 40 | 1004.0 |
| 20260501192222 | 101 | 169 | 4.0 | 4.0 | 0.00 | 0.00 | 0.00 | 41 | 1005.0 |
| 20260501191722 | 101 | 132 | 6.0 | 11.0 | 0.00 | 0.00 | 0.00 | 41 | 1005.0 |
| 20260501191223 | 101 | 121 | 4.0 | 8.0 | 0.00 | 0.00 | 0.00 | 42 | 1005.0 |
| 20260501190723 | 101 | 19 | 5.0 | 7.0 | 0.00 | 0.00 | 0.00 | 43 | 1005.0 |
| 20260501190223 | 101 | 189 | 5.0 | 7.0 | 0.00 | 0.00 | 0.00 | 41 | 1005.0 |
| 20260501185722 | 101 | 188 | 3.0 | 9.0 | 0.00 | 0.00 | 0.00 | 42 | 1005.0 |
| 20260501185222 | 99 | 63 | 5.0 | 8.0 | 0.00 | 0.00 | 0.00 | 43 | 1005.0 |
| 20260501184722 | 101 | 209 | 3.0 | 6.0 | 0.00 | 0.00 | 0.00 | 42 | 1005.0 |
| 20260501184223 | 100 | 89 | 3.0 | 6.0 | 0.00 | 0.00 | 0.00 | 43 | 1005.0 |
| 20260501183723 | 99 | 174 | 4.0 | 9.0 | 0.00 | 0.00 | 0.00 | 43 | 1005.0 |
| 20260501183222 | 100 | 210 | 5.0 | 9.0 | 0.00 | 0.00 | 0.00 | 44 | 1006.0 |
| 20260501182722 | 99 | 184 | 4.0 | 7.0 | 0.00 | 0.00 | 0.00 | 44 | 1006.0 |
| 20260501182222 | 99 | 78 | 5.0 | 7.0 | 0.00 | 0.00 | 0.00 | 44 | 1006.0 |
| 20260501181723 | 99 | 230 | 4.0 | 6.0 | 0.00 | 0.00 | 0.00 | 44 | 1006.0 |
| 20260501181222 | 99 | 189 | 4.0 | 10.0 | 0.00 | 0.00 | 0.00 | 44 | 1006.0 |
| 20260501180722 | 98 | 132 | 4.0 | 8.0 | 0.00 | 0.00 | 0.00 | 46 | 1006.0 |
| 20260501180222 | 98 | 103 | 5.0 | 9.0 | 0.00 | 0.00 | 0.00 | 46 | 1006.0 |
| 20260501175722 | 97 | 131 | 4.0 | 9.0 | 0.00 | 0.00 | 0.00 | 46 | 1006.0 |
| 20260501175222 | 97 | 127 | 5.0 | 9.0 | 0.00 | 0.00 | 0.00 | 46 | 1006.0 |
| 20260501174722 | 97 | 139 | 5.0 | 9.0 | 0.00 | 0.00 | 0.00 | 45 | 1006.0 |
| 20260501174225 | 98 | 129 | 3.0 | 8.0 | 0.00 | 0.00 | 0.00 | 46 | 1006.0 |
| 20260501173723 | 97 | 160 | 3.0 | 7.0 | 0.00 | 0.00 | 0.00 | 47 | 1006.0 |
| 20260501173223 | 96 | 115 | 4.0 | 9.0 | 0.00 | 0.00 | 0.00 | 49 | 1006.0 |
| 20260501172723 | 96 | 78 | 4.0 | 9.0 | 0.00 | 0.00 | 0.00 | 48 | 1006.0 |
| 20260501172222 | 95 | 130 | 5.0 | 8.0 | 0.00 | 0.00 | 0.00 | 49 | 1006.0 |
| 20260501171722 | 95 | 74 | 5.0 | 9.0 | 0.00 | 0.00 | 0.00 | 49 | 1007.0 |
| 20260501171223 | 95 | 141 | 4.0 | 6.0 | 0.00 | 0.00 | 0.00 | 50 | 1007.0 |
| 20260501170723 | 95 | 237 | 4.0 | 9.0 | 0.00 | 0.00 | 0.00 | 49 | 1007.0 |
| 20260501170223 | 94 | 220 | 5.0 | 9.0 | 0.00 | 0.00 | 0.00 | 51 | 1007.0 |
| 20260501165722 | 95 | 158 | 4.0 | 9.0 | 0.00 | 0.00 | 0.00 | 51 | 1007.0 |
| 20260501165222 | 94 | 156 | 4.0 | 7.0 | 0.00 | 0.00 | 0.00 | 50 | 1007.0 |
| 20260501164723 | 93 | 134 | 6.0 | 8.0 | 0.00 | 0.00 | 0.00 | 53 | 1007.0 |
| 20260501164222 | 93 | 122 | 5.0 | 8.0 | 0.00 | 0.00 | 0.00 | 54 | 1007.0 |
| 20260501163722 | 92 | 175 | 7.0 | 11.0 | 0.00 | 0.00 | 0.00 | 54 | 1007.0 |
| 20260501163222 | 92 | 110 | 6.0 | 9.0 | 0.00 | 0.00 | 0.00 | 53 | 1007.0 |
| 20260501162723 | 92 | 116 | 5.0 | 9.0 | 0.00 | 0.00 | 0.00 | 57 | 1007.0 |
| 20260501162223 | 92 | 66 | 4.0 | 6.0 | 0.00 | 0.00 | 0.00 | 56 | 1007.0 |
| 20260501161723 | 92 | 129 | 5.0 | 9.0 | 0.00 | 0.00 | 0.00 | 55 | 1007.0 |
| 20260501161222 | 92 | 52 | 5.0 | 7.0 | 0.00 | 0.00 | 0.00 | 56 | 1007.0 |
| 20260501160722 | 91 | 2 | 5.0 | 7.0 | 0.00 | 0.00 | 0.00 | 54 | 1007.0 |
| 20260501160225 | 92 | 36 | 4.0 | 7.0 | 0.00 | 0.00 | 0.00 | 52 | 1007.0 |
| 20260501155722 | 92 | 133 | 4.0 | 8.0 | 0.00 | 0.00 | 0.00 | 53 | 1007.0 |
| 20260501155223 | 91 | 65 | 5.0 | 8.0 | 0.00 | 0.00 | 0.00 | 52 | 1007.0 |
| 20260501154722 | 92 | 99 | 3.0 | 7.0 | 0.00 | 0.00 | 0.00 | 51 | 1007.0 |
| 20260501154222 | 92 | 206 | 2.0 | 3.0 | 0.00 | 0.00 | 0.00 | 50 | 1007.0 |
| 20260501153722 | 92 | 206 | 3.0 | 5.0 | 0.00 | 0.00 | 0.00 | 51 | 1007.0 |
| 20260501153223 | 91 | 163 | 2.0 | 4.0 | 0.00 | 0.00 | 0.00 | 51 | 1007.0 |
| 20260501152723 | 91 | 51 | 2.0 | 5.0 | 0.00 | 0.00 | 0.00 | 51 | 1007.0 |
| 20260501152223 | 90 | 57 | 3.0 | 5.0 | 0.00 | 0.00 | 0.00 | 51 | 1008.0 |
| 20260501151723 | 90 | 90 | 3.0 | 6.0 | 0.00 | 0.00 | 0.00 | 50 | 1007.0 |
| 20260501151223 | 90 | 162 | 2.0 | 5.0 | 0.00 | 0.00 | 0.00 | 50 | 1007.0 |
| 20260501150723 | 89 | 119 | 2.0 | 4.0 | 0.00 | 0.00 | 0.00 | 52 | 1007.0 |
| 20260501150223 | 89 | 270 | 2.0 | 3.0 | 0.00 | 0.00 | 0.00 | 55 | 1008.0 |
| 20260501145722 | 88 | 101 | 3.0 | 4.0 | 0.00 | 0.00 | 0.00 | 54 | 1007.0 |
| 20260501145223 | 88 | 82 | 2.0 | 4.0 | 0.00 | 0.00 | 0.00 | 57 | 1008.0 |
| 20260501144722 | 88 | 197 | 2.0 | 5.0 | 0.00 | 0.00 | 0.00 | 63 | 1008.0 |
| 20260501144223 | 88 | 61 | 2.0 | 4.0 | 0.00 | 0.00 | 0.00 | 61 | 1007.0 |
| 20260501143722 | 87 | 119 | 1.0 | 4.0 | 0.00 | 0.00 | 0.00 | 62 | 1007.0 |
| 20260501142722 | 86 | 121 | 1.0 | 4.0 | 0.00 | 0.00 | 0.00 | 63 | 1007.0 |
| 20260501142223 | 85 | 294 | 1.0 | 3.0 | 0.00 | 0.00 | 0.00 | 67 | 1007.0 |